Location: Blue Sky Observatory
(43.1153°N, 70.9036°W)
Time: 09:25:11
(UTC-04:00)

Daily predictions for brighter satellites

Satellite Brightness Start Highest point End
(mag) Time Altitude Azimuth Time Altitude Azimuth Time Altitude Azimuth
Meteor 2-4 Rocket 4.1 20:37:40 10° SSW 20:43:32 80° W 20:49:31 10° N
Cosmos 1939 Rocket 3.4 20:40:13 10° SE 20:44:11 45° ENE 20:48:09 10° N
Lacrosse 5 rocket 3.8 20:41:02 10° W 20:44:16 24° NNW 20:47:38 10° NNE
PSLV R/B 3.7 20:40:58 10° WSW 20:44:22 49° SSE 20:47:49 10° E
ERS-1 Rocket 3.0 20:39:46 10° SSE 20:44:46 79° ENE 20:49:49 10° NNW
Cosmos 1943 4.2 20:40:47 10° SSE 20:45:25 26° ESE 20:50:04 10° NE
SPOT 5 3.4 20:44:42 10° SE 20:48:41 35° ENE 20:52:38 10° N
USA 186 3.5 20:51:53 10° SSW 20:54:15 25° W 20:56:30 10° NW
COSMOS 2455 3.0 20:49:04 10° S 20:54:54 56° ESE 21:00:46 10° NE
Envisat 3.3 20:52:14 10° SSE 20:57:09 55° ENE 21:02:08 10° N
Lacrosse 5 4.5 20:53:46 10° WNW 20:57:22 19° NNW 21:00:58 10° NNE
H-2A R/B 4.2 20:53:42 10° SSW 20:57:25 39° W 21:01:09 10° NNW
CZ-4 SHROUD 3.9 20:56:14 10° SE 20:59:12 40° ENE 21:02:12 10° N
Cosmos 2058 Rocket 4.5 20:56:42 10° NNW 21:00:46 39° W 21:04:48 10° SSW
Cosmos 1602 Rocket 3.6 20:57:06 10° S 21:01:34 84° E 21:06:03 10° N
Cosmos 1346 Rocket 4.4 20:59:02 10° SE 21:01:39 17° E 21:04:18 10° NE
Tsikada Rocket 4.1 20:56:57 10° S 21:03:18 71° E 21:09:39 10° NNE
PSLV R/B 3.3 21:08:35 11° SSE 21:11:30 56° ENE 21:14:35 10° N
Cosmos 1812 Rocket 3.5 21:07:10 10° N 21:11:34 81° E 21:15:59 10° S
ARGOS 4.0 21:14:07 12° SE 21:18:36 35° ENE 21:23:29 10° N
deb Chang Zheng 4 4.3 21:17:11 10° N 21:21:31 59° WNW 21:25:48 10° SSW
H-2A R/B 3.0 21:20:51 10° S 21:24:57 46° W 21:29:11 10° NNW
Cosmos 2369 Rocket 2.3 21:21:53 10° NNW 21:27:34 67° ENE 21:32:08 16° SE
MetOp-B 4.2 21:24:58 12° SSE 21:29:57 74° ENE 21:35:18 10° N
Cosmos 1992 Rocket 4.0 21:25:28 10° NNW 21:30:44 90° W 21:35:14 14° SSE
UNK 4.3 21:25:50 10° NNE 21:31:16 67° ESE 21:36:59 10° S
USA 81 4.1 21:27:17 10° N 21:32:34 63° E 21:37:04 14° SSE
Cosmos 1766 4.5 21:29:46 10° NNE 21:33:16 28° ENE 21:35:22 18° ESE
Meteor 2-12 Rocket 4.5 21:27:10 10° N 21:33:17 86° W 21:39:21 10° S
Cosmos 1634 Rocket 4.0 21:30:01 10° N 21:36:11 68° E 21:41:30 14° SSE
Lacrosse 4 Rocket 1.5 21:34:25 10° S 21:38:17 48° ESE 21:42:14 10° NE
USA 245 4.2 21:36:07 15° SSE 21:40:57 68° ENE 21:45:49 10° N
SeaSat 1 2.5 21:38:41 16° SSE 21:42:37 82° WSW 21:47:35 10° NNW
SL-08 RB Rocket 4.0 21:47:17 21° SE 21:50:03 52° ENE 21:54:27 10° N
Cosmos 1953 Rocket 3.5 21:49:26 15° S 21:53:01 72° E 21:57:27 10° NNE
CZ-4B R/B 3.5 21:49:40 10° NNE 21:54:48 88° E 22:00:02 10° SSW
Cosmos 1190 Rocket 4.0 21:50:10 10° SSW 21:55:29 86° ESE 22:00:50 10° NNE
YAOGAN 6 2.7 21:54:35 21° S 21:56:56 75° W 22:00:42 10° NNW
Cosmos 2279 Rocket 4.2 21:51:00 10° N 21:57:11 59° E 22:01:15 22° SSE
Cosmos 2346 Rocket 4.5 21:51:47 10° S 21:57:58 88° W 22:04:09 10° N
H-2A R/B 2.8 21:55:22 21° ESE 21:58:05 37° ENE 22:02:44 10° N
Cosmos 2263 4.2 21:52:41 10° NNW 21:58:20 85° ENE 22:01:57 23° SSE
Cosmos-2242 3.8 21:55:25 10° N 21:59:32 37° ENE 22:01:22 26° ESE
Atlas Centaur 2 3.7 21:56:09 10° WSW 22:02:40 32° S 22:06:35 22° SE
COSMOS 2406 4.0 22:03:46 24° SE 22:05:52 31° ESE 22:10:50 10° NE
SPOT 1/Viking Rocket 3.7 22:03:18 19° S 22:07:00 73° WSW 22:12:10 10° NNW
CZ-4C R/B 3.5 22:05:22 29° SSE 22:07:21 66° ENE 22:11:21 10° N
BREEZE-M DEB (TANK) 2.7 22:04:54 10° WSW 22:07:52 48° NNW 22:09:50 10° NE
ATLAS 3B R/B 2.9 22:00:14 10° SSW 22:07:58 88° SE 22:15:32 10° NE
ISS -1.6 22:05:51 10° W 22:08:55 36° NNW 22:11:58 10° NE
Cosmos 1140 Rocket 4.2 22:07:58 27° SE 22:09:47 34° E 22:14:29 10° NE
Cosmos 676 Rocket 4.0 22:07:50 13° S 22:12:33 74° ESE 22:17:52 10° NNE
Meteor 1-22 Rocket 4.4 22:07:36 10° NNW 22:13:12 74° W 22:17:17 20° S
SAR-Lupe-2 4.0 22:14:42 37° ESE 22:15:38 47° ENE 22:19:06 10° N
CZ-4 R/B 4.0 22:12:00 10° NNE 22:17:01 83° WNW 22:21:16 15° SSW
Landsat 7 3.8 22:15:11 30° SSE 22:17:30 73° ENE 22:22:15 10° N
PSLV R/B 3.4 22:18:21 10° W 22:21:52 60° S 22:22:23 52° SE
Cosmos 1953 2.6 22:19:01 10° N 22:22:56 52° E 22:23:57 40° SE
USA 234 3.3 22:19:11 26° SE 22:23:12 78° SW 22:29:49 10° NW
Cosmos 1943 Rocket 2.1 22:19:16 10° NNW 22:24:50 77° ENE 22:27:31 32° SE
Lacrosse 5 rocket 4.5 22:23:07 10° NNW 22:24:50 12° N 22:26:35 10° NNE
Spot 4 4.2 22:24:57 32° SE 22:26:48 51° ENE 22:31:27 10° N
Cosmos 1758 Rocket 4.0 22:23:40 18° SSW 22:26:51 61° W 22:31:10 10° N
BREEZE M DEB (TANK) 3.2 22:25:05 10° W 22:25:59 20° WSW 22:25:59 20° WSW
Cosmos 1943 4.2 22:23:43 10° SW 22:29:09 47° WNW 22:34:41 10° NNE
CARTOSAT-1 3.6 22:28:09 39° SE 22:29:38 70° ENE 22:33:57 10° N
DMSP B5D2-2 4.3 22:24:31 10° NNE 22:29:42 53° E 22:31:44 34° SSE
Terra 1.8 22:31:28 37° SSE 22:33:18 73° ENE 22:38:04 10° N
Cosmos 1656 Rocket 4.3 22:30:17 10° NNW 22:35:48 47° ENE 22:38:19 29° ESE
Cosmos 1346 Rocket 4.4 22:34:25 11° SW 22:37:48 32° WNW 22:41:24 10° N
Cosmos 407 Rocket 4.4 22:36:22 10° SW 22:41:26 48° WNW 22:46:29 10° N
Lacrosse 5 4.4 22:38:32 10° NNW 22:42:02 18° N 22:45:31 10° NE
Cosmos 1842 3.7 22:44:54 33° SW 22:46:25 59° W 22:50:18 10° N
SL-27 R/B 2.5 22:46:07 57° SW 22:46:38 70° WNW 22:49:59 10° NNE
COSMOS 2487 4.0 22:49:12 26° ENE 22:49:12 26° ENE 22:51:25 10° NE
USA 238 DEB 3.7 22:43:14 10° SSW 22:50:18 75° ESE 22:57:22 10° NE
USA 238 3.7 22:43:20 10° SSW 22:50:24 74° ESE 22:57:27 10° NE
Cosmos 1842 Rocket 3.5 22:52:20 10° N 22:56:45 79° E 22:57:35 57° SSE
ARGOS 4.5 22:55:38 18° SSW 22:58:49 32° W 23:03:40 10° NNW
Cosmos 1733 4.0 23:00:36 10° N 23:04:12 38° ENE 23:04:12 38° ENE
Cosmos 1092 Rocket 4.0 23:02:29 39° SSE 23:04:58 72° E 23:11:14 10° NNE
IGS 5A 3.9 23:05:31 45° SW 23:06:19 53° W 23:10:25 10° NNW
Cosmos 2208 Rocket 3.9 23:01:29 10° NNW 23:06:41 78° WSW 23:08:05 49° S
Cosmos 1758 4.2 23:06:10 10° NNW 23:10:05 43° W 23:10:56 38° SW
CZ-4B R/B 3.9 23:10:38 15° ENE 23:10:50 15° ENE 23:13:02 10° NNE
Cosmos 2369 Rocket 4.2 23:07:19 10° WNW 23:10:57 18° W 23:13:56 12° SW
Meteor 2-5 Rocket 3.9 23:11:50 45° SSE 23:13:24 60° E 23:19:04 10° NNE
Nadezhda 4 Rocket 4.1 23:11:18 31° SSW 23:14:32 74° W 23:20:53 10° N
Cosmos 2084 4.0 23:11:36 10° NW 23:15:33 43° WSW 23:15:41 43° SW
Lacrosse 4 Rocket 4.1 23:14:24 10° W 23:17:17 18° NW 23:20:13 10° N
SL-8 R/B 3.6 23:14:31 10° WNW 23:19:23 88° SW 23:20:18 59° ESE
H-2A R/B 4.1 23:20:10 10° NE 23:22:11 20° ENE 23:22:11 20° ENE
Cosmos 1741 Rocket 4.2 23:21:14 36° SW 23:23:24 72° WNW 23:28:44 10° NNE
NOSS 3-2 (C) 3.8 23:24:06 42° SE 23:24:43 43° ESE 23:30:52 10° NE
Cosmos 1766 Rocket 4.5 23:31:48 36° E 23:31:48 36° E 23:35:42 10° NNE
Cosmos 1076 Rocket 4.3 23:32:46 38° ENE 23:32:46 38° ENE 23:36:20 10° NNE
Cosmos 1340 2.8 23:34:32 70° NW 23:34:32 70° NW 23:38:07 10° N
Cosmos 2221 2.5 23:30:04 10° N 23:34:23 66° E 23:34:25 66° E
Meteor 1-16 Rocket 4.2 23:30:38 10° N 23:36:16 72° E 23:37:35 53° SE
Cosmos 1470 3.0 23:32:52 10° NNW 23:36:33 59° W 23:36:33 59° W
Cosmos 1655 Rocket 4.0 23:35:25 48° SSE 23:37:05 68° E 23:43:18 10° NNE
H-2A R/B 3.4 23:36:00 23° WSW 23:37:34 27° W 23:41:50 10° NW
Cosmos 2278 4.1 23:39:12 10° NNW 23:44:44 54° ENE 23:46:20 41° ESE
ISS -0.4 23:43:39 10° NW 23:46:01 18° N 23:48:23 10° NE
Cosmos 1544 4.4 23:42:42 10° NNW 23:45:56 32° W 23:45:56 32° W
CZ-4C R/B 2.1 23:45:27 60° SSE 23:46:06 66° ESE 23:52:01 10° NE
Cosmos 405 Rocket 3.9 23:50:36 33° ENE 23:50:36 33° ENE 23:53:12 10° NNE
COSMOS 2406 4.3 23:45:47 16° WSW 23:50:01 41° WNW 23:55:26 10° NNE
Cosmos 1607 4.4 23:45:43 17° SW 23:50:29 59° NW 23:56:38 10° NNE
Atlas Centaur 2 4.3 23:45:16 10° WSW 23:49:12 22° SW 23:49:12 22° SW
